Weather History for Lakeland Region, FL

Change the Weather History Date:

Saturday, April 26, 2014

  Actual Average Record
Temperature  
Mean Temperature 74 °F -  
Max Temperature 87 °F 81 °F 93 °F (1999)
Min Temperature 60 °F 62 °F 32 °F (1986)
Cooling Degree Days 8    
Growing Degree Days 24 (Base 50)    
Moisture  
Dew Point 62 °F    
Average Humidity 81    
Maximum Humidity 100    
Minimum Humidity 35    
Precipitation  
Precipitation 0.00 in - - ()
Sea Level Pressure  
Sea Level Pressure 30.00 in    
Wind  
Wind Speed 1 mph (North)    
Max Wind Speed 12 mph    
Max Gust Speed 17 mph    
Visibility 8 miles    
Events Fog    
Averages and records for this station are not official NWS values.
T = Trace of Precipitation, MM = Missing Value Source: NWS Daily Summary

Daily Weather History Graph

Daily Weather History Graph

Search for Another Location

Airport:

Trip Planner

Search our weather history database for the weather conditions in past years. The results will help you decide how hot, cold, wet, or windy it might be!

Date:

Astronomy

Apr. 26, 2014 Rise Set
Actual Time 6:52 AM EDT 7:59 PM EDT
Civil Twilight 6:27 AM EDT 8:24 PM EDT
Nautical Twilight 5:58 AM EDT 8:53 PM EDT
Astronomical Twilight 5:29 AM EDT 9:23 PM EDT
Moon 5:00 AM EDT (4/26) 5:39 PM EDT (4/26)
Length of Visible Light 13h 56m
Length of Day
13h 07m
Waning Crescent, 8% of the Moon is Illuminated
Apr 26
Waning Crescent
Apr 29
New
May 6
First Quarter
May 14
Full
May 21
Last Quarter

Hourly Weather History & Observations

Time (EDT) Temp. Heat Index Dew Point Humidity Pressure Visibility Wind Dir Wind Speed Gust Speed Precip Events Conditions
12:15 AM 66.2 °F - 64.4 °F 94% 30.01 in 10.0 mi Calm Calm - N/A   Clear
12:35 AM 66.2 °F - 64.4 °F 94% 30.00 in 10.0 mi Calm Calm - N/A   Clear
12:55 AM 64.4 °F - 64.4 °F 100% 30.00 in 10.0 mi Calm Calm - N/A   Clear
1:15 AM 62.6 °F - 62.6 °F 100% 30.00 in 4.0 mi Calm Calm - N/A   Clear
1:35 AM 64.4 °F - 64.4 °F 100% 29.99 in 10.0 mi Calm Calm - N/A   Clear
1:55 AM 62.6 °F - 62.6 °F 100% 29.99 in 5.0 mi Calm Calm - N/A   Clear
2:15 AM 62.6 °F - 62.6 °F 100% 29.98 in 7.0 mi Calm Calm - N/A   Clear
2:35 AM 62.6 °F - 62.6 °F 100% 29.97 in 1.2 mi Calm Calm - N/A   Mist
2:55 AM 62.6 °F - 62.6 °F 100% 29.97 in 1.0 mi Calm Calm - N/A   Overcast
3:15 AM 62.6 °F - 62.6 °F 100% 29.97 in 7.0 mi Calm Calm - N/A   Scattered Clouds
3:35 AM 60.8 °F - 60.8 °F 100% 29.96 in 0.2 mi Calm Calm - N/A Fog Fog
3:55 AM 62.6 °F - 62.6 °F 100% 29.96 in 0.2 mi Calm Calm - N/A Fog Fog
4:15 AM 60.8 °F - 60.8 °F 100% 29.96 in 0.5 mi Calm Calm - N/A Fog Fog
4:35 AM 60.8 °F - 60.8 °F 100% 29.96 in 10.0 mi Calm Calm - N/A   Mostly Cloudy
4:55 AM 60.8 °F - 60.8 °F 100% 29.97 in 7.0 mi Calm Calm - N/A   Scattered Clouds
5:15 AM 62.6 °F - 62.6 °F 100% 29.97 in 10.0 mi Calm Calm - N/A   Scattered Clouds
5:35 AM 62.6 °F - 60.8 °F 94% 29.98 in 10.0 mi Calm Calm - N/A   Clear
5:50 AM 62.6 °F - 62.6 °F 100% 29.98 in 2.0 mi Calm Calm - N/A   Clear
6:21 AM 62.6 °F - 62.6 °F 100% 29.99 in 1.0 mi Calm Calm - N/A   Overcast
6:50 AM 62.6 °F - 62.6 °F 100% 30.00 in 0.2 mi Calm Calm - N/A Fog Fog
7:50 AM 64.4 °F - 64.4 °F 100% 30.01 in 0.2 mi Calm Calm - N/A Fog Fog
8:50 AM 68.0 °F - 68.0 °F 100% 30.03 in 3.0 mi Calm Calm - N/A   Scattered Clouds
9:50 AM 75.2 °F - 66.2 °F 73% 30.03 in 15.0 mi North 10.4 mph - N/A   Clear
10:45 AM 78.8 °F - 66.2 °F 65% 30.04 in 10.0 mi North 9.2 mph 17.3 mph N/A   Scattered Clouds
12:50 PM 82.4 °F 83.9 °F 64.4 °F 54% 30.03 in 12.0 mi Calm Calm - N/A   Mostly Cloudy
1:55 PM 84.2 °F 85.0 °F 62.6 °F 48% 30.01 in 10.0 mi Calm Calm - N/A   Mostly Cloudy
2:56 PM 84.2 °F 84.4 °F 60.8 °F 45% 30.00 in 15.0 mi Variable 5.8 mph - N/A   Mostly Cloudy
3:51 PM 87.8 °F 86.5 °F 57.2 °F 35% 29.98 in 15.0 mi West 4.6 mph - N/A   Mostly Cloudy
4:58 PM 87.8 °F 86.5 °F 57.2 °F 35% 29.97 in 15.0 mi North 5.8 mph - N/A   Scattered Clouds
5:52 PM 84.2 °F 83.5 °F 57.2 °F 40% 29.97 in 15.0 mi NNW 4.6 mph - N/A   Scattered Clouds
6:50 PM 84.2 °F 83.8 °F 59.0 °F 42% 29.97 in 15.0 mi Calm Calm - N/A   Scattered Clouds
7:50 PM 82.4 °F 82.9 °F 60.8 °F 48% 29.98 in 15.0 mi WNW 6.9 mph - N/A   Partly Cloudy
8:52 PM 77.0 °F - 62.6 °F 61% 30.00 in 15.0 mi NNW 4.6 mph - N/A   Clear
9:51 PM 75.2 °F - 62.6 °F 65% 30.01 in 15.0 mi Calm Calm - N/A   Clear
10:15 PM 73.4 °F - 62.6 °F 69% 30.03 in 10.0 mi ENE 11.5 mph - N/A   Clear
10:35 PM 73.4 °F - 62.6 °F 69% 30.03 in 10.0 mi North 5.8 mph - N/A   Clear
10:55 PM 71.6 °F - 62.6 °F 73% 30.03 in 10.0 mi North 5.8 mph - N/A   Clear
11:15 PM 71.6 °F - 62.6 °F 73% 30.03 in 10.0 mi ESE 5.8 mph - N/A   Clear
11:35 PM 71.6 °F - 62.6 °F 73% 30.02 in 10.0 mi East 3.5 mph - N/A   Clear
11:55 PM 71.6 °F - 62.6 °F 73% 30.02 in 10.0 mi Calm Calm - N/A   Clear